Regional Weather Roundup
Issued by NWS

Home | Current Version | Previous Version | Text Only | Print | Product List | Glossary On
Versions: 1 2 3 4 5 6 7 8 9 10 11 12 13 14 15 16 17 18 19 20 21 22 23 24 25 26 27 28 29 30 31 32 33 34 35 36 37 38 39 40 41 42 43 44 45 46 47 48 49 50
000
ASUS43 KLMK 020510
RWRKY
KENTUCKY REGIONAL WEATHER ROUNDUP
NATIONAL WEATHER SERVICE LOUISVILLE KY
100 AM EDT THU OCT 02 2014

NOTE "FAIR" INDICATES FEW OR NO CLOUDS BELOW 12,000 FEET
WITH NO SIGNIFICANT WEATHER AND/OR OBSTRUCTIONS TO VISIBILITY.

KYZ001>023-026-027-061>063-070>075-020600-
WESTERN AND SOUTH CENTRAL KENTUCKY

CITY           SKY/WX    TMP DP  RH WIND       PRES   REMARKS
PADUCAH        PTCLDY    71  60  68 S3        29.91R
HENDERSON      NOT AVBL
OWENSBORO      CLEAR     68  56  65 SE7       29.94F
HOPKINSVILLE   CLEAR     71  61  71 SE8       29.95S
BOWLING GREEN  CLEAR     62  56  80 CALM      29.98S
GLASGOW        CLEAR     63  54  72 CALM      29.98S
$$

KYZ024-025-028>034-038-045-046-053-020600-
NORTH CENTRAL KENTUCKY

CITY           SKY/WX    TMP DP  RH WIND       PRES   REMARKS
LOUISVILLE/SDF PTCLDY    68  58  70 SE3       29.97S
LOUISVILLE/LOU CLEAR     70  58  65 CALM      29.98S
FORT KNOX      CLEAR     62  57  82 E2        29.97S
$$

KYZ035>037-039>044-047>052-055>060-089>105-020600-
NORTHEAST KENTUCKY

CITY           SKY/WX    TMP DP  RH WIND       PRES   REMARKS
LEXINGTON      CLEAR     67  59  75 SE7       30.02S
COVINGTON      CLEAR     63  50  62 E3        30.01S
FRANKFORT      CLEAR     62  57  83 E3        29.99F
$$

KYZ054-064>069-076>088-106>120-020600-
SOUTHEAST KENTUCKY

CITY           SKY/WX    TMP DP  RH WIND       PRES   REMARKS
JACKSON        CLEAR     65  58  78 S3        30.05S
LONDON         CLEAR     60  57  89 CALM      30.04F FOG
SOMERSET       CLEAR     57  57 100 CALM      30.04S
MIDDLESBORO    CLEAR     55  55  98 CALM      30.07S
MONTICELLO     CLEAR     56  55  96 CALM      30.04S
$$



USA.gov is the U.S. government's official web portal to all federal, state and local government web resources and services.